QPF
0.00 0.00 0.00 0.00 0.00 0.00 0.01 0.01 0.01 0.01 0.01 0.01 0.01 0.01 0.02 0.02 0.08 0.14 0.09 0.07 0.05 0.04 0.03 0.02 0.01 0.01 0.01 0.01 0.02 0.03 0.04 0.03 0.02 0.02 0.02 0.02 0.04 0.02 0.03 0.03 0.03 0.06 0.06 0.05
0.01 0.01 0.00 0.00 0.00 0.00 0.01 0.01 0.01 0.01 0.01 0.02 0.02 0.03 0.03 0.03 0.07 0.09 0.09 0.06 0.06 0.04 0.03 0.03 0.02 0.02 0.01 0.01 0.02 0.03 0.02 0.02 0.01 0.02 0.02 0.03 0.04 0.02 0.02 0.02 0.02 0.04 0.05 0.06
0.01 0.00 0.00 0.00 0.01 0.01 0.01 0.02 0.02 0.02 0.02 0.04 0.04 0.06 0.09 0.08 0.08 0.10 0.09 0.07 0.06 0.05 0.04 0.03 0.04 0.04 0.03 0.03 0.03 0.02 0.02 0.02 0.01 0.01 0.03 0.06 0.04 0.03 0.02 0.03 0.02 0.02 0.02 0.02
0.01 0.00 0.00 0.01 0.01 0.01 0.01 0.01 0.02 0.02 0.02 0.03 0.04 0.06 0.11 0.14 0.11 0.12 0.12 0.10 0.06 0.07 0.06 0.04 0.05 0.06 0.06 0.05 0.05 0.04 0.03 0.02 0.01 0.01 0.02 0.06 0.04 0.02 0.02 0.02 0.02 0.01 0.02 0.01
0.01 0.00 0.01 0.01 0.00 0.00 0.00 0.01 0.01 0.02 0.02 0.03 0.03 0.04 0.06 0.10 0.10 0.10 0.11 0.10 0.08 0.08 0.08 0.06 0.04 0.05 0.06 0.07 0.05 0.05 0.04 0.02 0.01 0.01 0.01 0.03 0.02 0.02 0.02 0.02 0.02 0.01 0.01 0.02
0.00 0.00 0.00 0.00 0.00 0.00 0.00 0.01 0.01 0.02 0.03 0.04 0.03 0.03 0.05 0.07 0.05 0.05 0.06 0.08 0.07 0.05 0.05 0.05 0.03 0.04 0.06 0.07 0.06 0.05 0.04 0.03 0.02 0.03 0.02 0.01 0.01 0.01 0.01 0.02 0.01 0.01 0.01 0.03
0.00 0.00 0.00 0.00 0.00 0.01 0.01 0.01 0.02 0.04 0.05 0.05 0.02 0.03 0.04 0.05 0.03 0.03 0.03 0.04 0.03 0.03 0.03 0.03 0.03 0.06 0.10 0.11 0.08 0.05 0.04 0.03 0.03 0.03 0.02 0.02 0.02 0.02 0.01 0.01 0.00 0.01 0.01 0.02
0.01 0.01 0.01 0.01 0.01 0.01 0.02 0.02 0.02 0.04 0.06 0.04 0.02 0.04 0.05 0.04 0.03 0.03 0.04 0.04 0.04 0.05 0.03 0.03 0.03 0.04 0.07 0.10 0.10 0.09 0.07 0.04 0.03 0.03 0.03 0.02 0.02 0.03 0.03 0.02 0.01 0.01 0.01 0.02
0.03 0.02 0.01 0.02 0.01 0.02 0.01 0.01 0.01 0.02 0.04 0.04 0.04 0.05 0.06 0.06 0.05 0.05 0.05 0.06 0.06 0.08 0.04 0.03 0.03 0.03 0.02 0.04 0.07 0.08 0.10 0.08 0.06 0.05 0.04 0.03 0.02 0.02 0.04 0.05 0.03 0.02 0.01 0.01
0.02 0.03 0.03 0.02 0.02 0.01 0.01 0.01 0.00 0.01 0.04 0.06 0.06 0.08 0.11 0.13 0.07 0.06 0.07 0.07 0.09 0.11 0.10 0.07 0.05 0.04 0.03 0.03 0.03 0.06 0.10 0.10 0.10 0.11 0.08 0.05 0.04 0.03 0.04 0.05 0.03 0.02 0.02 0.02
0.03 0.05 0.06 0.03 0.02 0.01 0.01 0.02 0.02 0.02 0.02 0.04 0.06 0.08 0.09 0.09 0.06 0.05 0.06 0.06 0.10 0.17 0.18 0.12 0.07 0.05 0.04 0.04 0.03 0.04 0.06 0.06 0.09 0.11 0.09 0.06 0.04 0.03 0.03 0.04 0.03 0.02 0.03 0.02
0.03 0.04 0.04 0.03 0.02 0.01 0.03 0.03 0.05 0.05 0.04 0.04 0.06 0.09 0.06 0.06 0.05 0.05 0.06 0.08 0.11 0.15 0.12 0.13 0.11 0.08 0.06 0.05 0.05 0.06 0.08 0.11 0.12 0.07 0.05 0.04 0.04 0.04 0.03 0.04 0.04 0.03 0.02 0.03
0.03 0.04 0.03 0.02 0.01 0.01 0.04 0.04 0.05 0.07 0.08 0.08 0.07 0.07 0.07 0.05 0.04 0.04 0.05 0.07 0.09 0.08 0.08 0.13 0.14 0.10 0.08 0.06 0.06 0.08 0.11 0.13 0.08 0.05 0.04 0.05 0.05 0.04 0.04 0.04 0.04 0.03 0.02 0.02
0.03 0.03 0.04 0.03 0.02 0.02 0.02 0.03 0.04 0.05 0.06 0.05 0.03 0.04 0.07 0.06 0.05 0.05 0.05 0.06 0.06 0.07 0.07 0.11 0.12 0.10 0.09 0.06 0.07 0.09 0.06 0.05 0.03 0.03 0.03 0.04 0.04 0.04 0.04 0.04 0.03 0.02 0.01 0.01
0.02 0.03 0.02 0.02 0.02 0.02 0.02 0.02 0.02 0.03 0.03 0.04 0.03 0.02 0.04 0.06 0.07 0.07 0.05 0.05 0.05 0.05 0.05 0.05 0.05 0.06 0.09 0.10 0.07 0.05 0.04 0.04 0.04 0.03 0.04 0.03 0.03 0.03 0.03 0.02 0.02 0.01 0.01 0.01
0.02 0.03 0.02 0.02 0.02 0.02 0.03 0.03 0.03 0.03 0.03 0.03 0.03 0.02 0.04 0.06 0.07 0.07 0.06 0.06 0.06 0.05 0.04 0.05 0.06 0.08 0.10 0.11 0.11 0.08 0.04 0.03 0.03 0.03 0.03 0.03 0.02 0.02 0.02 0.02 0.01 0.01 0.01 0.01
0.02 0.02 0.02 0.02 0.02 0.02 0.05 0.05 0.04 0.03 0.03 0.05 0.04 0.03 0.04 0.06 0.07 0.06 0.07 0.06 0.07 0.08 0.07 0.07 0.08 0.12 0.12 0.11 0.10 0.09 0.06 0.04 0.03 0.02 0.03 0.03 0.02 0.02 0.02 0.03 0.02 0.02 0.02 0.02
0.01 0.02 0.04 0.02 0.03 0.04 0.05 0.06 0.04 0.04 0.05 0.10 0.07 0.04 0.05 0.07 0.07 0.06 0.07 0.08 0.09 0.10 0.09 0.08 0.06 0.06 0.08 0.08 0.09 0.09 0.09 0.06 0.04 0.03 0.02 0.02 0.02 0.02 0.03 0.03 0.03 0.02 0.02 0.02
0.00 0.01 0.03 0.03 0.04 0.05 0.05 0.07 0.09 0.07 0.09 0.10 0.12 0.11 0.08 0.08 0.07 0.07 0.08 0.07 0.07 0.07 0.07 0.08 0.07 0.05 0.06 0.07 0.07 0.09 0.11 0.08 0.05 0.03 0.02 0.02 0.02 0.03 0.03 0.03 0.03 0.03 0.03 0.02
0.00 0.01 0.03 0.04 0.06 0.07 0.05 0.04 0.06 0.10 0.13 0.09 0.11 0.12 0.09 0.11 0.13 0.11 0.07 0.06 0.07 0.07 0.07 0.10 0.13 0.11 0.06 0.08 0.09 0.10 0.11 0.10 0.06 0.04 0.03 0.03 0.04 0.04 0.03 0.04 0.04 0.04 0.03 0.02
0.01 0.02 0.04 0.05 0.06 0.06 0.04 0.05 0.09 0.14 0.19 0.14 0.09 0.07 0.05 0.06 0.10 0.12 0.08 0.07 0.06 0.06 0.06 0.07 0.05 0.04 0.05 0.10 0.13 0.12 0.11 0.09 0.06 0.04 0.04 0.03 0.03 0.03 0.04 0.05 0.06 0.05 0.03 0.04
0.03 0.03 0.04 0.05 0.06 0.06 0.04 0.06 0.12 0.11 0.11 0.11 0.09 0.08 0.05 0.07 0.08 0.08 0.05 0.05 0.06 0.09 0.08 0.05 0.04 0.03 0.02 0.04 0.07 0.12 0.11 0.07 0.05 0.04 0.04 0.03 0.03 0.03 0.04 0.05 0.07 0.08 0.06 0.05
0.03 0.03 0.04 0.06 0.07 0.07 0.07 0.07 0.11 0.11 0.10 0.12 0.09 0.06 0.05 0.07 0.11 0.11 0.05 0.03 0.05 0.07 0.07 0.05 0.05 0.04 0.03 0.02 0.03 0.06 0.12 0.10 0.05 0.03 0.03 0.04 0.05 0.04 0.04 0.04 0.05 0.07 0.08 0.06
0.03 0.02 0.03 0.05 0.06 0.07 0.07 0.07 0.09 0.08 0.08 0.11 0.12 0.09 0.07 0.07 0.07 0.05 0.04 0.04 0.06 0.07 0.08 0.05 0.05 0.04 0.03 0.02 0.02 0.04 0.07 0.10 0.08 0.04 0.04 0.05 0.06 0.05 0.03 0.03 0.03 0.04 0.05 0.05
0.04 0.03 0.04 0.07 0.11 0.12 0.09 0.06 0.06 0.07 0.09 0.09 0.08 0.10 0.11 0.15 0.11 0.05 0.05 0.05 0.07 0.08 0.06 0.04 0.04 0.04 0.03 0.02 0.01 0.02 0.05 0.07 0.10 0.09 0.06 0.05 0.04 0.03 0.03 0.03 0.03 0.03 0.03 0.03
0.04 0.06 0.07 0.10 0.11 0.12 0.10 0.09 0.07 0.05 0.05 0.06 0.06 0.07 0.08 0.15 0.15 0.11 0.08 0.06 0.06 0.06 0.05 0.05 0.04 0.05 0.04 0.03 0.02 0.02 0.04 0.06 0.06 0.08 0.06 0.03 0.04 0.04 0.04 0.04 0.04 0.03 0.03 0.03
MSLP
1010.44 1011.30 1011.84 1012.04 1011.92 1011.54 1010.97 1010.29 1009.55 1008.80 1008.06 1007.35 1006.66 1006.01 1005.41 1004.90 1004.50 1004.24 1004.14 1004.20 1004.38 1004.66 1004.99 1005.32 1005.60 1005.84 1006.02 1006.17 1006.33 1006.52 1006.79 1007.14 1007.56 1008.03 1008.51 1008.95 1009.33 1009.62 1009.82 1009.95 1010.04 1010.14 1010.28 1010.50
1010.43 1011.11 1011.48 1011.55 1011.36 1011.01 1010.54 1010.03 1009.50 1008.97 1008.41 1007.81 1007.18 1006.50 1005.82 1005.20 1004.67 1004.31 1004.13 1004.15 1004.35 1004.67 1005.04 1005.41 1005.72 1005.96 1006.11 1006.22 1006.33 1006.49 1006.75 1007.10 1007.55 1008.06 1008.58 1009.05 1009.44 1009.70 1009.84 1009.89 1009.89 1009.90 1009.97 1010.13
1009.99 1010.49 1010.69 1010.66 1010.46 1010.19 1009.91 1009.64 1009.40 1009.14 1008.81 1008.37 1007.80 1007.11 1006.34 1005.56 1004.87 1004.34 1004.03 1003.96 1004.11 1004.42 1004.82 1005.22 1005.56 1005.80 1005.97 1006.07 1006.17 1006.33 1006.59 1006.97 1007.46 1008.01 1008.57 1009.07 1009.46 1009.70 1009.80 1009.80 1009.73 1009.66 1009.67 1009.78
1009.18 1009.48 1009.55 1009.45 1009.30 1009.18 1009.14 1009.18 1009.28 1009.34 1009.29 1009.04 1008.56 1007.86 1006.98 1006.04 1005.14 1004.40 1003.91 1003.69 1003.73 1003.99 1004.36 1004.77 1005.14 1005.42 1005.60 1005.73 1005.85 1006.03 1006.31 1006.72 1007.24 1007.82 1008.41 1008.94 1009.34 1009.58 1009.66 1009.62 1009.51 1009.40 1009.35 1009.42
1008.14 1008.26 1008.20 1008.08 1008.02 1008.09 1008.33 1008.72 1009.19 1009.60 1009.85 1009.81 1009.43 1008.73 1007.76 1006.64 1005.52 1004.56 1003.84 1003.42 1003.32 1003.47 1003.80 1004.19 1004.57 1004.88 1005.10 1005.26 1005.41 1005.61 1005.91 1006.33 1006.87 1007.47 1008.07 1008.61 1009.02 1009.27 1009.35 1009.30 1009.18 1009.06 1008.99 1009.02
1007.07 1007.01 1006.86 1006.75 1006.79 1007.06 1007.59 1008.32 1009.15 1009.90 1010.43 1010.60 1010.34 1009.65 1008.60 1007.33 1006.02 1004.82 1003.87 1003.25 1002.97 1003.00 1003.24 1003.60 1003.97 1004.30 1004.55 1004.74 1004.91 1005.12 1005.43 1005.84 1006.36 1006.94 1007.54 1008.07 1008.49 1008.75 1008.85 1008.83 1008.73 1008.62 1008.56 1008.58
1006.15 1005.95 1005.73 1005.62 1005.76 1006.21 1006.99 1008.01 1009.14 1010.18 1010.96 1011.32 1011.17 1010.51 1009.42 1008.04 1006.57 1005.18 1004.03 1003.22 1002.77 1002.67 1002.82 1003.12 1003.47 1003.79 1004.05 1004.26 1004.44 1004.64 1004.92 1005.29 1005.76 1006.30 1006.85 1007.36 1007.77 1008.05 1008.19 1008.21 1008.16 1008.09 1008.06 1008.10
1005.53 1005.22 1004.94 1004.84 1005.05 1005.63 1006.58 1007.80 1009.14 1010.39 1011.35 1011.85 1011.80 1011.19 1010.10 1008.67 1007.10 1005.59 1004.30 1003.34 1002.76 1002.53 1002.59 1002.83 1003.14 1003.44 1003.70 1003.89 1004.06 1004.23 1004.45 1004.76 1005.15 1005.61 1006.10 1006.56 1006.95 1007.24 1007.41 1007.49 1007.50 1007.49 1007.51 1007.59
1005.28 1004.89 1004.57 1004.47 1004.71 1005.35 1006.37 1007.68 1009.12 1010.47 1011.52 1012.11 1012.14 1011.59 1010.55 1009.13 1007.55 1006.00 1004.65 1003.61 1002.94 1002.62 1002.60 1002.76 1003.03 1003.30 1003.52 1003.69 1003.81 1003.93 1004.09 1004.31 1004.60 1004.97 1005.37 1005.77 1006.13 1006.42 1006.62 1006.75 1006.83 1006.89 1006.97 1007.09
1005.40 1004.97 1004.63 1004.51 1004.74 1005.36 1006.36 1007.64 1009.06 1010.39 1011.45 1012.07 1012.15 1011.68 1010.72 1009.38 1007.87 1006.37 1005.04 1003.99 1003.28 1002.91 1002.82 1002.93 1003.13 1003.35 1003.53 1003.66 1003.73 1003.79 1003.87 1004.00 1004.20 1004.46 1004.77 1005.10 1005.41 1005.69 1005.91 1006.08 1006.22 1006.34 1006.48 1006.64
1005.79 1005.38 1005.04 1004.90 1005.08 1005.62 1006.51 1007.68 1008.97 1010.19 1011.17 1011.77 1011.88 1011.49 1010.64 1009.45 1008.08 1006.70 1005.46 1004.47 1003.77 1003.37 1003.23 1003.28 1003.41 1003.57 1003.70 1003.77 1003.80 1003.80 1003.81 1003.86 1003.97 1004.14 1004.37 1004.63 1004.89 1005.14 1005.36 1005.55 1005.73 1005.90 1006.08 1006.29
1006.35 1005.98 1005.67 1005.52 1005.64 1006.08 1006.82 1007.80 1008.90 1009.95 1010.81 1011.34 1011.46 1011.15 1010.44 1009.43 1008.25 1007.05 1005.95 1005.04 1004.38 1003.98 1003.79 1003.76 1003.82 1003.90 1003.96 1003.98 1003.96 1003.91 1003.87 1003.87 1003.92 1004.02 1004.17 1004.37 1004.58 1004.80 1005.00 1005.20 1005.40 1005.59 1005.80 1006.03
1006.96 1006.67 1006.41 1006.28 1006.36 1006.68 1007.26 1008.04 1008.91 1009.77 1010.48 1010.93 1011.05 1010.82 1010.26 1009.44 1008.47 1007.46 1006.52 1005.72 1005.11 1004.69 1004.45 1004.33 1004.30 1004.28 1004.26 1004.22 1004.15 1004.08 1004.01 1003.97 1003.99 1004.05 1004.16 1004.30 1004.47 1004.65 1004.83 1005.02 1005.21 1005.41 1005.63 1005.88
1007.54 1007.36 1007.18 1007.09 1007.14 1007.39 1007.82 1008.41 1009.09 1009.75 1010.31 1010.68 1010.80 1010.64 1010.22 1009.59 1008.83 1008.01 1007.22 1006.52 1005.94 1005.50 1005.18 1004.96 1004.80 1004.67 1004.56 1004.44 1004.33 1004.23 1004.15 1004.11 1004.11 1004.16 1004.24 1004.35 1004.49 1004.63 1004.79 1004.95 1005.13 1005.32 1005.54 1005.79
1008.06 1008.00 1007.92 1007.90 1007.97 1008.17 1008.50 1008.95 1009.46 1009.97 1010.40 1010.70 1010.81 1010.72 1010.43 1009.97 1009.38 1008.73 1008.07 1007.44 1006.86 1006.37 1005.95 1005.60 1005.30 1005.04 1004.82 1004.62 1004.46 1004.33 1004.25 1004.21 1004.22 1004.27 1004.35 1004.45 1004.56 1004.68 1004.81 1004.95 1005.11 1005.29 1005.50 1005.74
1008.53 1008.58 1008.62 1008.68 1008.81 1009.01 1009.29 1009.65 1010.04 1010.43 1010.77 1011.01 1011.12 1011.08 1010.90 1010.57 1010.12 1009.60 1009.03 1008.43 1007.84 1007.28 1006.74 1006.24 1005.79 1005.39 1005.04 1004.75 1004.52 1004.36 1004.27 1004.24 1004.27 1004.32 1004.41 1004.51 1004.61 1004.72 1004.83 1004.95 1005.09 1005.26 1005.46 1005.69
1008.99 1009.13 1009.28 1009.45 1009.65 1009.89 1010.17 1010.48 1010.81 1011.12 1011.38 1011.58 1011.69 1011.69 1011.57 1011.33 1010.99 1010.55 1010.03 1009.45 1008.82 1008.17 1007.52 1006.88 1006.27 1005.72 1005.24 1004.85 1004.55 1004.35 1004.24 1004.21 1004.24 1004.31 1004.41 1004.51 1004.62 1004.72 1004.82 1004.93 1005.06 1005.22 1005.41 1005.63
1009.47 1009.70 1009.94 1010.21 1010.50 1010.80 1011.10 1011.40 1011.69 1011.95 1012.16 1012.32 1012.41 1012.42 1012.34 1012.15 1011.87 1011.48 1010.99 1010.40 1009.74 1009.01 1008.25 1007.48 1006.74 1006.06 1005.46 1004.97 1004.60 1004.34 1004.20 1004.16 1004.18 1004.25 1004.36 1004.47 1004.57 1004.68 1004.79 1004.90 1005.03 1005.18 1005.36 1005.57
1010.02 1010.31 1010.64 1010.99 1011.35 1011.71 1012.04 1012.35 1012.61 1012.83 1013.00 1013.11 1013.16 1013.15 1013.07 1012.90 1012.64 1012.27 1011.80 1011.21 1010.52 1009.75 1008.92 1008.06 1007.23 1006.44 1005.75 1005.18 1004.73 1004.42 1004.23 1004.16 1004.16 1004.22 1004.32 1004.43 1004.54 1004.65 1004.76 1004.88 1005.01 1005.16 1005.33 1005.54
1010.66 1010.99 1011.37 1011.78 1012.20 1012.60 1012.96 1013.27 1013.50 1013.68 1013.79 1013.84 1013.84 1013.78 1013.67 1013.49 1013.22 1012.87 1012.40 1011.82 1011.13 1010.35 1009.50 1008.61 1007.74 1006.90 1006.15 1005.52 1005.01 1004.64 1004.41 1004.29 1004.26 1004.29 1004.37 1004.47 1004.58 1004.69 1004.81 1004.93 1005.06 1005.21 1005.37 1005.56
1011.40 1011.74 1012.15 1012.59 1013.04 1013.46 1013.82 1014.11 1014.31 1014.43 1014.47 1014.45 1014.37 1014.25 1014.08 1013.87 1013.59 1013.23 1012.78 1012.23 1011.58 1010.83 1010.01 1009.15 1008.28 1007.45 1006.69 1006.02 1005.48 1005.07 1004.78 1004.61 1004.53 1004.52 1004.57 1004.65 1004.74 1004.85 1004.96 1005.09 1005.21 1005.35 1005.50 1005.66
1012.20 1012.55 1012.96 1013.40 1013.84 1014.25 1014.60 1014.85 1015.01 1015.06 1015.03 1014.92 1014.76 1014.56 1014.32 1014.05 1013.75 1013.39 1012.96 1012.46 1011.87 1011.20 1010.46 1009.68 1008.87 1008.09 1007.35 1006.69 1006.13 1005.68 1005.35 1005.13 1005.00 1004.94 1004.94 1004.99 1005.06 1005.15 1005.25 1005.37 1005.48 1005.61 1005.73 1005.86
1013.05 1013.38 1013.77 1014.19 1014.60 1014.98 1015.28 1015.49 1015.59 1015.58 1015.47 1015.28 1015.02 1014.74 1014.43 1014.11 1013.77 1013.41 1013.02 1012.58 1012.08 1011.51 1010.88 1010.21 1009.50 1008.80 1008.12 1007.49 1006.94 1006.47 1006.10 1005.82 1005.63 1005.52 1005.47 1005.47 1005.51 1005.57 1005.66 1005.75 1005.85 1005.95 1006.04 1006.12
1013.94 1014.22 1014.56 1014.92 1015.29 1015.61 1015.87 1016.03 1016.07 1016.00 1015.81 1015.55 1015.22 1014.86 1014.48 1014.11 1013.75 1013.40 1013.04 1012.66 1012.25 1011.80 1011.30 1010.75 1010.16 1009.55 1008.95 1008.36 1007.82 1007.35 1006.94 1006.62 1006.37 1006.20 1006.10 1006.05 1006.04 1006.08 1006.13 1006.20 1006.27 1006.34 1006.39 1006.44
1014.82 1015.04 1015.30 1015.59 1015.88 1016.15 1016.35 1016.46 1016.46 1016.33 1016.11 1015.79 1015.40 1014.98 1014.56 1014.15 1013.77 1013.42 1013.09 1012.77 1012.45 1012.10 1011.72 1011.29 1010.82 1010.31 1009.78 1009.24 1008.72 1008.24 1007.80 1007.43 1007.13 1006.90 1006.74 1006.64 1006.60 1006.59 1006.62 1006.65 1006.70 1006.74 1006.76 1006.77
1015.67 1015.80 1015.97 1016.16 1016.38 1016.57 1016.72 1016.79 1016.76 1016.62 1016.37 1016.02 1015.61 1015.16 1014.70 1014.27 1013.88 1013.53 1013.23 1012.96 1012.70 1012.44 1012.16 1011.83 1011.45 1011.03 1010.56 1010.06 1009.55 1009.06 1008.60 1008.18 1007.83 1007.55 1007.34 1007.19 1007.11 1007.07 1007.06 1007.08 1007.10 1007.11 1007.11 1007.09
Thickness
5753 5736 5728 5736 5742 5742 5742 5738 5736 5752 5771 5764 5758 5759 5767 5776 5776 5774 5774 5774 5775 5776 5779 5780 5780 5778 5775 5771 5768 5764 5760 5756 5753 5748 5744 5740 5738 5738 5737 5736 5735 5734 5733 5732
5732 5728 5744 5750 5750 5746 5740 5732 5736 5750 5766 5760 5751 5753 5763 5769 5770 5772 5771 5770 5770 5771 5772 5772 5772 5771 5769 5767 5765 5761 5757 5753 5750 5747 5744 5740 5737 5735 5734 5733 5732 5731 5730 5728
5725 5740 5754 5748 5742 5739 5736 5732 5735 5740 5752 5756 5747 5738 5749 5761 5767 5769 5771 5771 5770 5770 5769 5768 5767 5766 5764 5762 5761 5759 5755 5752 5748 5745 5741 5737 5732 5729 5727 5727 5726 5726 5725 5725
5731 5747 5749 5743 5740 5740 5728 5747 5748 5746 5733 5725 5736 5712 5734 5747 5753 5760 5763 5765 5765 5768 5768 5767 5765 5763 5761 5760 5759 5755 5752 5749 5746 5743 5738 5732 5727 5723 5723 5722 5721 5721 5721 5721
5730 5744 5741 5737 5744 5748 5742 5754 5749 5744 5731 5719 5723 5711 5720 5738 5741 5751 5757 5761 5764 5766 5766 5765 5764 5763 5761 5759 5755 5752 5748 5745 5743 5740 5735 5730 5725 5722 5721 5719 5717 5717 5717 5716
5737 5751 5749 5748 5756 5756 5753 5746 5738 5728 5715 5699 5714 5708 5709 5728 5739 5748 5754 5758 5761 5763 5764 5763 5762 5760 5757 5754 5751 5748 5743 5740 5738 5736 5732 5728 5723 5720 5716 5714 5712 5711 5711 5710
5722 5737 5750 5754 5743 5746 5740 5715 5693 5690 5684 5691 5715 5709 5712 5739 5749 5751 5752 5754 5758 5760 5758 5756 5754 5752 5750 5748 5746 5743 5738 5735 5734 5731 5728 5725 5722 5718 5714 5712 5709 5707 5705 5704
5701 5708 5735 5745 5737 5729 5728 5714 5687 5676 5676 5687 5707 5702 5718 5743 5750 5752 5752 5751 5753 5753 5752 5751 5751 5749 5746 5743 5742 5739 5735 5731 5730 5727 5724 5722 5720 5716 5713 5710 5707 5705 5703 5702
5699 5705 5736 5746 5748 5738 5722 5714 5714 5693 5688 5680 5690 5705 5723 5738 5740 5743 5743 5743 5744 5744 5745 5745 5745 5744 5742 5739 5737 5735 5731 5727 5725 5722 5720 5717 5715 5713 5710 5707 5705 5703 5701 5700
5710 5703 5723 5739 5741 5738 5731 5721 5699 5686 5674 5671 5685 5695 5702 5717 5724 5731 5735 5736 5738 5740 5739 5739 5740 5738 5737 5736 5733 5730 5727 5723 5721 5717 5715 5713 5711 5709 5706 5704 5701 5699 5697 5696
5712 5699 5707 5717 5716 5715 5718 5712 5700 5684 5681 5671 5667 5684 5720 5720 5725 5727 5731 5734 5736 5736 5735 5733 5735 5735 5733 5730 5727 5723 5720 5717 5714 5711 5710 5708 5706 5704 5702 5699 5697 5695 5693 5692
5705 5692 5688 5702 5722 5730 5720 5711 5698 5680 5677 5677 5671 5684 5727 5725 5727 5727 5729 5732 5732 5732 5731 5729 5728 5728 5726 5723 5720 5718 5715 5712 5709 5707 5705 5703 5701 5699 5696 5695 5693 5691 5689 5687
5699 5683 5672 5680 5694 5709 5708 5709 5702 5690 5678 5673 5669 5685 5719 5720 5722 5724 5725 5726 5726 5725 5723 5723 5722 5722 5720 5718 5715 5713 5711 5708 5705 5703 5700 5697 5696 5694 5692 5690 5689 5687 5685 5683
5701 5678 5670 5667 5677 5690 5693 5700 5701 5689 5672 5672 5679 5688 5701 5707 5710 5714 5717 5719 5719 5718 5717 5717 5715 5715 5714 5712 5710 5707 5705 5704 5701 5698 5695 5693 5691 5690 5688 5686 5685 5683 5681 5679
5687 5673 5678 5683 5692 5696 5695 5697 5699 5693 5687 5679 5685 5689 5696 5703 5707 5710 5712 5713 5712 5710 5710 5709 5709 5708 5708 5706 5703 5702 5701 5700 5698 5694 5691 5689 5688 5686 5684 5682 5681 5679 5677 5675
5673 5668 5673 5676 5689 5691 5687 5692 5694 5692 5690 5687 5688 5687 5700 5704 5706 5706 5706 5708 5707 5706 5705 5703 5703 5702 5701 5700 5698 5696 5696 5695 5693 5690 5687 5685 5684 5682 5680 5678 5676 5674 5672 5670
5663 5661 5659 5659 5677 5679 5667 5678 5682 5682 5686 5685 5679 5685 5693 5694 5696 5697 5699 5701 5702 5702 5701 5699 5698 5698 5697 5696 5696 5693 5692 5690 5688 5686 5684 5681 5679 5677 5676 5675 5672 5669 5667 5666
5660 5654 5647 5650 5659 5650 5662 5682 5684 5680 5680 5684 5685 5686 5688 5688 5690 5692 5694 5695 5695 5696 5696 5695 5694 5693 5693 5692 5691 5689 5687 5685 5683 5681 5679 5677 5675 5673 5671 5669 5668 5666 5663 5662
5665 5654 5643 5640 5641 5649 5663 5673 5675 5671 5670 5677 5677 5680 5681 5684 5684 5683 5689 5691 5691 5692 5692 5691 5690 5689 5689 5687 5686 5683 5681 5679 5677 5675 5673 5672 5670 5668 5666 5665 5664 5662 5660 5658
5659 5653 5642 5638 5637 5637 5650 5668 5677 5671 5658 5669 5671 5671 5674 5675 5666 5671 5682 5685 5685 5685 5685 5685 5684 5682 5682 5681 5680 5678 5676 5674 5672 5671 5670 5668 5667 5664 5663 5661 5660 5658 5657 5654
5638 5637 5633 5632 5632 5638 5650 5662 5669 5649 5648 5662 5664 5666 5668 5666 5667 5672 5676 5677 5678 5678 5679 5680 5679 5676 5676 5675 5674 5672 5670 5669 5669 5668 5666 5664 5663 5661 5660 5658 5657 5655 5653 5651
5625 5623 5623 5623 5623 5628 5647 5651 5644 5643 5652 5657 5660 5663 5663 5664 5667 5668 5669 5670 5671 5671 5672 5673 5672 5670 5670 5670 5668 5667 5665 5665 5664 5663 5662 5660 5659 5658 5657 5654 5653 5651 5649 5646
5620 5620 5620 5622 5623 5632 5640 5641 5644 5647 5649 5653 5655 5658 5659 5659 5660 5661 5662 5662 5663 5664 5664 5664 5663 5662 5663 5663 5663 5661 5660 5660 5660 5658 5656 5655 5654 5653 5652 5650 5648 5646 5644 5641
5616 5621 5618 5618 5624 5630 5635 5638 5642 5646 5648 5652 5653 5654 5655 5653 5652 5653 5654 5654 5655 5656 5656 5656 5656 5655 5655 5656 5657 5656 5656 5655 5654 5652 5651 5650 5648 5647 5647 5646 5645 5642 5640 5637
5606 5610 5607 5609 5617 5623 5629 5632 5636 5641 5644 5645 5647 5649 5649 5647 5645 5645 5646 5647 5648 5648 5649 5650 5649 5648 5649 5651 5651 5652 5651 5650 5648 5646 5645 5644 5644 5643 5641 5641 5640 5639 5639 5637
5596 5597 5597 5599 5607 5609 5616 5624 5629 5631 5633 5636 5638 5639 5640 5641 5638 5638 5638 5639 5640 5641 5642 5642 5642 5642 5642 5643 5644 5645 5645 5644 5642 5640 5640 5639 5639 5638 5637 5635 5633 5634 5635 5634